AFR31WR LFPG-EHAM

Flight info

Callsign AFR31WR
Flight time 0h 41m
Altitude 28000
Route NURMO DCT CMB DCT VEKIN DCT ADUTO N873 FERDI Y18 DENUT
Aircraft A320/M-SDE3FGHIRWY/LB1

Departure

Time 2026-05-08 12:16
Airport Charles de Gaulle International Airport (LFPG)

Arrival

Time 2026-05-08 12:58
Airport Amsterdam Airport Schiphol (EHAM)
Time Latitude Longitude Altitude Speed Heading
2026-05-08 11:45 49.00650 2.57317 358 ft 0 kts 99°
2026-05-08 12:05 49.00653 2.57285 357 ft 4 kts 83°
2026-05-08 12:05 49.00645 2.57250 364 ft 4 kts 41°
2026-05-08 12:06 49.00625 2.57237 358 ft 1 kts 355°
2026-05-08 12:09 49.00628 2.57237 354 ft 4 kts 355°
2026-05-08 12:09 49.00688 2.57207 359 ft 14 kts 298°
2026-05-08 12:09 49.00669 2.57064 359 ft 13 kts 253°
2026-05-08 12:10 49.00653 2.56933 354 ft 14 kts 264°
2026-05-08 12:10 49.00641 2.56743 358 ft 19 kts 265°
2026-05-08 12:10 49.00632 2.56547 354 ft 18 kts 265°
2026-05-08 12:10 49.00622 2.56369 361 ft 16 kts 265°
2026-05-08 12:11 49.00614 2.56209 354 ft 14 kts 265°
2026-05-08 12:11 49.00603 2.56067 358 ft 13 kts 257°
2026-05-08 12:11 49.00570 2.55910 356 ft 19 kts 262°
2026-05-08 12:11 49.00562 2.55727 359 ft 16 kts 265°
2026-05-08 12:12 49.00554 2.55563 354 ft 15 kts 268°
2026-05-08 12:12 49.00540 2.55407 358 ft 17 kts 242°
2026-05-08 12:12 49.00430 2.55338 360 ft 19 kts 168°
2026-05-08 12:12 49.00311 2.55388 354 ft 16 kts 164°
2026-05-08 12:13 49.00198 2.55440 354 ft 18 kts 163°
2026-05-08 12:13 49.00074 2.55494 360 ft 19 kts 166°
2026-05-08 12:13 48.99952 2.55543 356 ft 18 kts 156°
2026-05-08 12:13 48.99852 2.55666 356 ft 19 kts 116°
2026-05-08 12:14 48.99779 2.55799 359 ft 11 kts 163°
2026-05-08 12:14 48.99711 2.55810 354 ft 4 kts 173°
2026-05-08 12:14 48.99710 2.55810 354 ft 0 kts 172°
2026-05-08 12:15 48.99677 2.55817 358 ft 10 kts 172°
2026-05-08 12:15 48.99604 2.55872 355 ft 13 kts 110°
2026-05-08 12:15 48.99608 2.56015 354 ft 14 kts 85°
2026-05-08 12:15 48.99622 2.56282 359 ft 52 kts 85°
2026-05-08 12:16 48.99671 2.57179 352 ft 116 kts 86°
2026-05-08 12:16 48.99751 2.58670 360 ft 164 kts 86°
2026-05-08 12:16 48.99846 2.60375 1037 ft 159 kts 85°
2026-05-08 12:16 48.99933 2.62035 1773 ft 157 kts 85°
2026-05-08 12:17 49.00014 2.63689 2420 ft 159 kts 85°
2026-05-08 12:17 49.00098 2.65464 2725 ft 182 kts 86°
2026-05-08 12:17 49.00194 2.67487 3093 ft 201 kts 85°
2026-05-08 12:17 49.00314 2.69716 3430 ft 223 kts 85°
2026-05-08 12:18 49.00453 2.72209 3812 ft 247 kts 85°
2026-05-08 12:18 49.00596 2.74904 4446 ft 261 kts 85°
2026-05-08 12:18 49.00740 2.77682 5322 ft 265 kts 85°
2026-05-08 12:18 49.00884 2.80501 6213 ft 268 kts 85°
2026-05-08 12:19 49.01026 2.83348 7080 ft 271 kts 86°
2026-05-08 12:19 49.01419 2.86135 7898 ft 275 kts 62°
2026-05-08 12:19 49.02743 2.88261 8512 ft 285 kts 27°
2026-05-08 12:19 49.04655 2.88981 9269 ft 287 kts 358°
2026-05-08 12:20 49.06654 2.88561 9861 ft 295 kts 347°
2026-05-08 12:20 49.08662 2.88021 10205 ft 291 kts 350°
2026-05-08 12:20 49.10733 2.87601 10602 ft 311 kts 352°
2026-05-08 12:20 49.12962 2.87257 10913 ft 331 kts 353°
2026-05-08 12:21 49.15275 2.86928 11542 ft 338 kts 353°
2026-05-08 12:21 49.17645 2.86594 12222 ft 344 kts 353°
2026-05-08 12:21 49.20042 2.86253 12946 ft 348 kts 353°
2026-05-08 12:21 49.22428 2.85865 13707 ft 350 kts 352°
2026-05-08 12:22 49.24865 2.85438 14369 ft 354 kts 352°
2026-05-08 12:22 49.27363 2.85014 15017 ft 358 kts 352°
2026-05-08 12:22 49.29848 2.84594 15671 ft 361 kts 352°
2026-05-08 12:22 49.32354 2.84159 16280 ft 365 kts 352°
2026-05-08 12:23 49.34892 2.83715 16896 ft 369 kts 352°
2026-05-08 12:23 49.37461 2.83269 17510 ft 372 kts 352°
2026-05-08 12:23 49.40002 2.82830 18118 ft 376 kts 352°
2026-05-08 12:23 49.42616 2.82382 18679 ft 379 kts 352°
2026-05-08 12:24 49.45252 2.81935 18987 ft 382 kts 352°
2026-05-08 12:24 49.47895 2.81485 19373 ft 384 kts 352°
2026-05-08 12:24 49.50562 2.81031 19971 ft 386 kts 352°
2026-05-08 12:24 49.53237 2.80576 20545 ft 389 kts 352°
2026-05-08 12:25 49.55939 2.80113 21096 ft 392 kts 352°
2026-05-08 12:25 49.58655 2.79646 21643 ft 394 kts 352°
2026-05-08 12:25 49.61396 2.79174 22178 ft 397 kts 352°
2026-05-08 12:25 49.64157 2.78700 22718 ft 400 kts 352°
2026-05-08 12:26 49.66938 2.78228 23249 ft 403 kts 352°
2026-05-08 12:26 49.69739 2.77747 23734 ft 406 kts 352°
2026-05-08 12:26 49.72520 2.77266 24170 ft 409 kts 352°
2026-05-08 12:26 49.75388 2.76770 24602 ft 411 kts 352°
2026-05-08 12:27 49.78207 2.76359 25007 ft 414 kts 357°
2026-05-08 12:27 49.81096 2.76606 25407 ft 418 kts
2026-05-08 12:27 49.83937 2.77659 25786 ft 422 kts 18°
2026-05-08 12:27 49.86633 2.79495 26180 ft 426 kts 28°
2026-05-08 12:28 49.89163 2.81918 26566 ft 428 kts 32°
2026-05-08 12:28 49.91683 2.84394 26941 ft 431 kts 31°
2026-05-08 12:28 49.94225 2.86890 27318 ft 433 kts 32°
2026-05-08 12:28 49.96776 2.89393 27703 ft 435 kts 32°
2026-05-08 12:29 49.99341 2.91907 28003 ft 437 kts 32°
2026-05-08 12:29 50.01890 2.94411 28074 ft 427 kts 32°
2026-05-08 12:29 50.04354 2.96840 28078 ft 415 kts 32°
2026-05-08 12:29 50.06778 2.99235 28078 ft 411 kts 32°
2026-05-08 12:30 50.11600 3.04002 28081 ft 410 kts 32°
2026-05-08 12:30 50.16411 3.08763 28085 ft 409 kts 32°
2026-05-08 12:31 50.21183 3.13498 28083 ft 409 kts 32°
2026-05-08 12:31 50.26226 3.17532 28085 ft 408 kts 23°
2026-05-08 12:32 50.31395 3.21156 28079 ft 407 kts 23°
2026-05-08 12:32 50.36565 3.24784 28071 ft 407 kts 23°
2026-05-08 12:33 50.41726 3.28433 28074 ft 407 kts 24°
2026-05-08 12:33 50.46819 3.32363 28076 ft 408 kts 26°
2026-05-08 12:34 50.51872 3.36414 28079 ft 408 kts 25°
2026-05-08 12:34 50.57014 3.40138 28077 ft 407 kts 22°
2026-05-08 12:35 50.62232 3.43616 28084 ft 407 kts 22°
2026-05-08 12:35 50.67402 3.47091 28099 ft 407 kts 22°
2026-05-08 12:36 50.72592 3.50668 28090 ft 407 kts 23°
2026-05-08 12:36 50.77767 3.54270 28090 ft 406 kts 23°
2026-05-08 12:37 50.82936 3.57872 28101 ft 406 kts 23°
2026-05-08 12:37 50.88106 3.61479 28101 ft 406 kts 23°
2026-05-08 12:38 50.93515 3.63799 28090 ft 403 kts
2026-05-08 12:38 50.99118 3.65112 27825 ft 412 kts 16°
2026-05-08 12:39 51.01848 3.66513 27274 ft 410 kts 18°
2026-05-08 12:39 51.04532 3.67976 26752 ft 407 kts 18°
2026-05-08 12:39 51.07198 3.69442 26236 ft 404 kts 18°
2026-05-08 12:39 51.09819 3.70854 25737 ft 402 kts 17°
2026-05-08 12:40 51.12464 3.72243 25246 ft 400 kts 17°
2026-05-08 12:40 51.15100 3.73600 24749 ft 398 kts 17°
2026-05-08 12:40 51.17728 3.74939 24269 ft 395 kts 17°
2026-05-08 12:40 51.20346 3.76268 23798 ft 393 kts 17°
2026-05-08 12:41 51.22952 3.77591 23271 ft 392 kts 17°
2026-05-08 12:41 51.25543 3.78912 22712 ft 390 kts 17°
2026-05-08 12:41 51.28115 3.80232 22175 ft 388 kts 17°
2026-05-08 12:41 51.30683 3.81555 21643 ft 387 kts 17°
2026-05-08 12:42 51.33242 3.82879 21109 ft 386 kts 17°
2026-05-08 12:42 51.35791 3.84199 20597 ft 384 kts 17°
2026-05-08 12:42 51.38331 3.85510 20090 ft 383 kts 17°
2026-05-08 12:42 51.40861 3.86820 19600 ft 381 kts 18°
2026-05-08 12:43 51.43349 3.88109 19123 ft 380 kts 18°
2026-05-08 12:43 51.45859 3.89414 18641 ft 379 kts 18°
2026-05-08 12:43 51.48362 3.90716 18129 ft 377 kts 18°
2026-05-08 12:43 51.50853 3.92010 17593 ft 376 kts 18°
2026-05-08 12:44 51.53308 3.93286 17071 ft 375 kts 17°
2026-05-08 12:44 51.55785 3.94577 16549 ft 373 kts 17°
2026-05-08 12:44 51.58252 3.95867 16013 ft 373 kts 17°
2026-05-08 12:44 51.60714 3.97156 15484 ft 372 kts 17°
2026-05-08 12:45 51.63166 3.98443 14965 ft 371 kts 18°
2026-05-08 12:45 51.65618 3.99730 14454 ft 370 kts 17°
2026-05-08 12:45 51.68062 4.01012 13950 ft 368 kts 18°
2026-05-08 12:45 51.70488 4.02286 13391 ft 367 kts 17°
2026-05-08 12:46 51.72908 4.03556 12835 ft 365 kts 17°
2026-05-08 12:46 51.75310 4.04815 12295 ft 362 kts 17°
2026-05-08 12:46 51.77703 4.06070 11759 ft 360 kts 18°
2026-05-08 12:46 51.80078 4.07323 11256 ft 357 kts 18°
2026-05-08 12:47 51.82423 4.08562 10752 ft 350 kts 18°
2026-05-08 12:47 51.84652 4.09739 10288 ft 333 kts 18°
2026-05-08 12:47 51.86780 4.10862 10109 ft 309 kts 18°
2026-05-08 12:47 51.88771 4.11916 10113 ft 298 kts 18°
2026-05-08 12:48 51.90721 4.13044 10113 ft 297 kts 25°
2026-05-08 12:48 51.92470 4.14778 9953 ft 293 kts 39°
2026-05-08 12:48 51.94044 4.16862 9549 ft 292 kts 39°
2026-05-08 12:48 51.95610 4.18948 9157 ft 290 kts 39°
2026-05-08 12:49 51.97158 4.21007 8897 ft 284 kts 39°
2026-05-08 12:49 51.98655 4.22987 8638 ft 270 kts 39°
2026-05-08 12:49 52.00075 4.24865 8379 ft 256 kts 39°
2026-05-08 12:49 52.01431 4.26664 7943 ft 250 kts 39°
2026-05-08 12:50 52.02766 4.28435 7420 ft 246 kts 39°
2026-05-08 12:50 52.04087 4.30184 6922 ft 243 kts 39°
2026-05-08 12:50 52.05371 4.31884 6419 ft 240 kts 39°
2026-05-08 12:50 52.06680 4.33624 5962 ft 239 kts 39°
2026-05-08 12:51 52.07962 4.35332 5639 ft 237 kts 39°
2026-05-08 12:51 52.10478 4.38679 4981 ft 234 kts 39°
2026-05-08 12:51 52.11733 4.40350 4636 ft 232 kts 39°
2026-05-08 12:52 52.12980 4.42014 4283 ft 231 kts 39°
2026-05-08 12:52 52.15439 4.45304 3737 ft 222 kts 39°
2026-05-08 12:52 52.16611 4.46872 3601 ft 214 kts 39°
2026-05-08 12:53 52.17737 4.48376 3470 ft 205 kts 39°
2026-05-08 12:53 52.18819 4.49823 3324 ft 198 kts 40°
2026-05-08 12:53 52.19874 4.51236 3089 ft 196 kts 40°
2026-05-08 12:53 52.20812 4.52808 2943 ft 194 kts 55°
2026-05-08 12:54 52.21537 4.54620 2745 ft 188 kts 58°
2026-05-08 12:54 52.22220 4.56389 2481 ft 180 kts 59°
2026-05-08 12:54 52.22870 4.58070 2244 ft 170 kts 58°
2026-05-08 12:54 52.23485 4.59660 2022 ft 159 kts 58°
2026-05-08 12:55 52.24047 4.61112 1821 ft 146 kts 58°
2026-05-08 12:55 52.24573 4.62476 1625 ft 139 kts 58°
2026-05-08 12:55 52.25080 4.63786 1437 ft 138 kts 57°
2026-05-08 12:55 52.25589 4.65104 1253 ft 138 kts 57°
2026-05-08 12:56 52.26101 4.66430 1071 ft 137 kts 57°
2026-05-08 12:56 52.26608 4.67746 880 ft 137 kts 58°
2026-05-08 12:56 52.27113 4.69057 697 ft 137 kts 57°
2026-05-08 12:56 52.27626 4.70373 514 ft 136 kts 57°
2026-05-08 12:57 52.28130 4.71688 355 ft 136 kts 56°
2026-05-08 12:57 52.28630 4.73003 149 ft 136 kts 56°
2026-05-08 12:57 52.29129 4.74297 2 ft 128 kts 56°
2026-05-08 12:57 52.29521 4.75310 -2 ft 81 kts 58°
2026-05-08 12:58 52.29737 4.75874 -2 ft 45 kts 58°
2026-05-08 12:58 52.29895 4.76281 -4 ft 40 kts 59°
2026-05-08 12:58 52.30050 4.76566 -2 ft 29 kts 22°
2026-05-08 12:58 52.30178 4.76670 -1 ft 17 kts 28°
2026-05-08 12:59 52.30254 4.76736 -1 ft 11 kts 27°
2026-05-08 12:59 52.30329 4.76729 -1 ft 12 kts 331°
2026-05-08 12:59 52.30390 4.76765 -1 ft 10 kts 64°
2026-05-08 12:59 52.30426 4.76868 -1 ft 11 kts 58°
2026-05-08 13:00 52.30471 4.76977 -1 ft 12 kts 46°
2026-05-08 13:00 52.30541 4.76934 -1 ft 12 kts 327°
2026-05-08 13:00 52.30601 4.76854 -1 ft 11 kts 306°
2026-05-08 13:00 52.30641 4.76766 -1 ft 8 kts 321°
2026-05-08 13:01 52.30657 4.76712 -1 ft 5 kts 235°
2026-05-08 13:01 52.30638 4.76667 -1 ft 4 kts 238°
2026-05-08 13:01 52.30627 4.76639 -1 ft 1 kts 238°
2026-05-08 13:01 52.30626 4.76636 -1 ft 0 kts 238°